Location: Brede
(50.9167°N, 0.6000°E)
Time: 17:51:28
(UTC+00:00)

SL-16 R/B - Pass Details

Date: 08 August 2020
Orbit: 840 x 849 km, 71.0° (Epoch: 23 September)

Event Time Altitude Azimuth Distance (km) Brightness Sun altitude
Rises 23:59:19 0° 331° (NNW) 3,425 6.4 -23.0°
Reaches altitude 10° 00:02:18 10° 346° (NNW) 2,487 5.7 -23.0°
Maximum altitude 00:06:49 23° 38° (NE) 1,721 4.3 -23.0°
Drops below altitude 10° 00:11:19 10° 91° (E) 2,477 4.6 -23.0°
Sets 00:14:16 0° 105° (ESE) 3,408 5.2 -23.0°
